Retour au catalogue

H-2A R/B

ActifGTO
NORAD 41941·ROCKET BODY·🇯🇵 Japan

Lancé Jan 24, 2017 depuis Tanegashima Space Center

Loading…

TLE

FraisSource: Mike McCants

Époque: Sep 15, 2026, 06:27 UTC

1 41941U 17005B   26258.26941966  .00000381  00000-0  63853-3 0    01
2 41941  21.2937 343.3538 7169264 119.8309 328.7833  2.35949413  4862

Suivez H-2A R/B en temps réel avec AllMySat

Download on the App Store